Vertical_Velocity
3 -3 3 -5 2 1 -2 -2 -1 -2 -1 -1 -0 -1 -3 -2 -1 -2 -2 1 -1 0 0 -0 -1 -1 -1 0 -1 -0 0 2 -1 1 1 2 3 0 -1 2 -0 -0 -1 -2 -3
-1 2 -1 1 -2 -4 -1 -3 0 -4 -1 -3 -4 -1 -3 -3 -2 -1 -2 -1 -0 0 1 1 1 -1 2 1 -1 -3 -2 1 2 -2 2 1 1 4 4 -2 5 -2 -2 -0 0
-1 0 0 0 -3 -0 -5 0 0 1 -5 -1 -2 -5 -2 1 -2 -1 -2 1 -1 -0 -0 1 1 0 0 4 1 1 -0 1 1 -0 3 2 2 3 5 2 2 1 -1 1 1
-3 -1 3 2 -1 -2 -2 -0 -5 1 -3 -3 -2 -3 -4 -2 -1 -3 -0 -1 -0 -1 -2 2 1 -1 -2 -0 2 1 1 -2 -2 1 -3 2 2 1 4 2 3 0 0 -2 -3
3 -3 1 -1 1 -3 -4 -4 -1 -3 1 -2 -1 -2 -4 -7 -6 -3 -1 -2 -0 -0 1 -2 0 -1 -2 -1 1 2 -3 1 -1 -2 -2 -6 -0 -1 8 -2 7 3 2 3 3
-2 2 -5 2 2 -0 -3 -5 -1 1 -3 -4 1 -2 -2 -2 -3 -4 -4 2 -2 0 5 -2 -1 0 -2 0 1 1 1 2 1 3 -2 -1 1 -4 4 -3 5 3 1 -1 -0
3 -6 -1 -0 2 -1 -1 -3 -2 -0 -4 -3 -0 -1 -4 -4 -4 -3 -1 -3 1 -2 2 0 -1 -2 2 -2 1 2 -1 -3 -1 -1 -1 -5 7 4 -10 -1 1 -2 -1 2 -0
5 -5 1 -1 2 3 -4 -2 -4 -4 -1 -2 -0 -2 -4 -1 -3 -4 -1 -5 2 -1 -1 1 -2 2 -1 -1 -2 0 -1 0 -5 1 -0 -0 15 -14 1 -1 -0 -1 -4 -1 -1
-1 7 -6 0 3 2 1 -2 -2 -1 -2 -4 1 -2 -1 -2 -0 -1 -3 -1 -4 1 -2 1 -1 1 -2 1 -1 1 -2 -2 -3 1 -2 -2 9 -3 6 -0 0 -1 -3 -0 7
-2 12 -7 -1 0 0 -1 -2 -4 -1 -1 -1 1 -2 2 -4 -2 -0 -6 1 -4 1 -2 -2 -2 1 2 -1 2 -3 1 1 3 -2 1 0 8 0 2 1 -2 -3 2 3 1
-2 1 -3 1 1 1 1 -3 -5 -3 1 2 -2 -1 -1 -3 2 1 -2 1 -3 -2 -3 1 -2 8 -9 -4 -1 0 0 -1 0 -4 1 -2 0 -6 -3 5 -1 2 -1 2 3
1 -0 -4 0 3 -1 1 -4 -6 -1 9 -7 -0 3 -1 1 3 -2 -2 -1 -0 -3 0 -2 3 -8 0 -0 1 -2 -3 2 1 -6 -3 -5 1 3 2 1 -4 4 1 0 -3
0 -1 -1 -4 1 4 1 -3 -9 -1 -2 7 3 -4 -2 -2 -1 -4 -1 0 0 0 -3 0 -2 -3 1 -1 -1 -2 0 -4 -1 -3 -5 1 -2 0 1 -3 -2 -4 -0 -4 -1
-2 -1 2 -3 -0 2 -0 -5 -6 0 -17 15 -3 -2 9 -0 0 -3 -2 -3 -2 0 -1 0 -4 -1 -2 -1 -3 -1 -2 -4 -4 -1 -3 -1 -3 4 -1 0 -5 3 0 2 -0
-0 -0 -1 4 4 -0 0 -8 -7 2 -36 -2 -3 -3 2 2 -1 2 -3 -5 -3 2 0 1 -2 -1 3 -5 -2 2 -1 1 -2 -3 -10 8 -19 17 2 7 -1 -3 -3 -4 -3
-1 -3 0 4 5 -1 -3 -9 3 -11 -13 2 -8 0 -5 2 0 -3 1 0 -3 1 3 0 -3 1 1 -3 -0 -0 -2 -3 -2 -2 -11 4 -5 15 3 5 -0 -0 -3 -4 -3
-1 -1 7 0 8 -1 -4 -2 -14 -29 6 -2 -4 -1 -7 2 4 0 -3 1 -1 -3 1 -3 -1 -1 -1 -0 0 -1 -1 -5 -7 -5 -5 -6 -11 13 5 4 4 -1 -4 -2 -1
1 -1 8 5 -3 2 -2 -4 -37 3 11 7 1 -1 -3 -2 1 0 -1 2 1 -0 -2 1 1 0 3 1 -2 -2 -4 -3 -7 -7 -2 -2 -15 10 2 8 -5 -8 -4 -1 -2
-1 -3 -4 12 5 2 -3 -36 -1 20 17 8 1 -9 -5 3 2 2 -1 0 2 2 -2 -4 2 -2 1 3 2 3 -4 0 -10 -5 -13 -1 3 -0 9 -2 -4 -1 -1 -3 -6
2 2 -5 21 5 -4 -21 -14 -13 7 13 9 -1 -2 -7 8 -5 -4 1 8 5 2 1 -2 -7 3 -2 0 -1 -0 5 -3 -4 -12 -16 -1 -14 -0 1 1 1 3 -7 -6 -3
-10 -13 9 31 4 -26 -58 -12 2 11 13 3 2 -5 2 -3 2 -3 -3 5 2 5 2 1 -3 10 1 1 6 -3 -6 -4 -6 -11 -14 -16 2 11 11 -2 5 -0 -3 -1 4
42 -39 -4 39 7 -48 -31 28 24 11 9 -4 -3 3 1 2 -2 -4 -2 8 2 -1 1 3 -7 -3 2 -3 1 -7 -3 1 -8 7 -3 -17 -5 -3 7 -3 0 -0 4 -2 -5
-7 -4 3 19 -8 -53 18 -2 -0 -2 13 10 -0 7 5 -0 -13 -2 -1 6 -0 1 -4 6 -9 -4 2 3 -3 -2 9 2 1 3 6 -24 -6 3 -1 11 -2 1 -2 -10 -6
40 7 21 18 17 -14 4 -8 -17 6 -4 -2 7 -5 1 1 6 -3 5 1 -2 -2 2 -4 -9 -4 2 -1 -3 -1 4 4 1 -22 9 -6 -68 89 4 -1 -0 0 -3 -6 1
10 8 -1 13 -31 19 13 11 -10 -8 5 5 -8 0 9 -16 -4 -2 5 7 9 8 -3 -10 -21 -10 5 4 -8 -5 -3 13 -8 7 -25 48 -56 76 7 -11 -3 -0 -4 -6 -7
32 -0 5 -9 12 9 2 -48 1 12 4 2 -16 23 3 -35 7 6 1 1 9 6 6 1 -21 -3 -21 5 3 -30 7 1 11 10 -23 5 -73 95 -1 -13 2 -1 -0 -5 -2
-6 -13 9 -1 4 12 -27 14 12 24 -17 9 11 1 -27 29 12 6 4 2 -12 -1 1 -2 -2 10 -77 26 15 -78 40 5 6 16 18 -24 1 14 -6 -19 2 0 -7 -2 3
Height
5846 5848 5848 5849 5848 5849 5849 5849 5848 5846 5845 5844 5841 5840 5839 5839 5838 5837 5836 5835 5834 5835 5834 5835 5834 5833 5834 5836 5837 5838 5839 5839 5839 5840 5841 5842 5841 5841 5843 5843 5843 5843 5843 5845 5845
5841 5842 5845 5844 5845 5846 5847 5846 5846 5844 5842 5841 5841 5839 5837 5837 5836 5835 5834 5833 5833 5833 5833 5833 5833 5832 5833 5834 5835 5837 5838 5839 5839 5840 5841 5841 5841 5840 5844 5843 5844 5844 5843 5843 5843
5837 5837 5840 5841 5841 5842 5843 5843 5844 5843 5841 5838 5837 5838 5836 5834 5834 5833 5832 5831 5830 5830 5831 5832 5831 5832 5833 5833 5834 5835 5836 5837 5837 5837 5839 5839 5840 5839 5840 5842 5841 5843 5843 5842 5843
5831 5834 5834 5837 5837 5838 5839 5839 5840 5840 5839 5837 5835 5834 5834 5833 5832 5831 5830 5828 5828 5827 5828 5829 5828 5828 5830 5831 5832 5834 5833 5834 5835 5835 5836 5836 5837 5838 5839 5839 5838 5840 5842 5842 5842
5826 5828 5829 5831 5832 5834 5835 5836 5837 5837 5836 5834 5833 5832 5831 5830 5829 5828 5828 5826 5825 5825 5825 5825 5825 5825 5828 5828 5829 5830 5830 5831 5830 5831 5832 5833 5834 5834 5836 5836 5836 5838 5839 5839 5839
5820 5823 5824 5825 5828 5829 5830 5832 5832 5833 5833 5832 5830 5829 5829 5828 5826 5824 5823 5822 5821 5821 5821 5821 5820 5822 5823 5825 5825 5827 5828 5828 5828 5827 5829 5828 5830 5831 5834 5832 5833 5833 5834 5835 5835
5812 5816 5819 5820 5823 5824 5825 5826 5827 5829 5828 5829 5828 5826 5825 5825 5823 5821 5819 5818 5818 5817 5817 5816 5816 5817 5819 5818 5822 5822 5824 5824 5823 5823 5826 5825 5826 5826 5824 5827 5829 5829 5829 5831 5831
5806 5809 5813 5815 5816 5819 5819 5820 5822 5824 5824 5824 5824 5823 5822 5821 5820 5818 5815 5814 5814 5813 5812 5812 5812 5812 5815 5815 5816 5818 5820 5821 5820 5821 5822 5823 5824 5817 5823 5823 5823 5825 5827 5829 5830
5798 5802 5806 5808 5810 5812 5814 5815 5816 5818 5818 5819 5820 5819 5819 5818 5816 5814 5812 5809 5808 5809 5808 5807 5808 5808 5810 5811 5812 5813 5815 5817 5817 5818 5819 5819 5820 5817 5817 5819 5820 5820 5823 5824 5826
5789 5794 5797 5801 5803 5806 5807 5809 5810 5812 5814 5813 5814 5817 5813 5814 5813 5809 5808 5805 5803 5804 5804 5803 5804 5805 5806 5806 5807 5808 5810 5811 5812 5813 5814 5814 5815 5814 5814 5814 5815 5815 5818 5821 5822
5780 5784 5789 5792 5795 5799 5801 5802 5806 5806 5808 5808 5808 5811 5808 5808 5807 5806 5803 5801 5799 5799 5799 5799 5801 5802 5798 5801 5802 5804 5805 5806 5807 5807 5809 5808 5810 5810 5809 5811 5812 5813 5814 5816 5817
5770 5775 5780 5784 5787 5790 5792 5794 5797 5798 5801 5802 5803 5804 5803 5804 5802 5801 5799 5798 5796 5795 5795 5796 5798 5794 5795 5798 5799 5800 5801 5801 5800 5801 5801 5802 5806 5807 5807 5808 5809 5810 5809 5809 5810
5761 5765 5771 5775 5778 5781 5784 5787 5789 5789 5789 5799 5797 5796 5797 5799 5796 5797 5795 5793 5792 5791 5791 5793 5793 5792 5793 5793 5795 5795 5797 5796 5796 5796 5797 5798 5802 5803 5801 5801 5802 5804 5804 5803 5803
5750 5755 5761 5765 5771 5772 5775 5778 5780 5782 5779 5789 5792 5794 5792 5793 5793 5792 5790 5790 5789 5789 5788 5789 5789 5789 5788 5790 5790 5792 5792 5793 5793 5792 5792 5791 5792 5798 5798 5798 5796 5797 5797 5797 5796
5740 5745 5750 5756 5760 5761 5766 5769 5772 5775 5769 5769 5783 5788 5786 5788 5788 5788 5786 5785 5785 5785 5785 5786 5786 5786 5786 5785 5785 5788 5787 5787 5787 5787 5787 5788 5785 5791 5793 5793 5791 5791 5791 5791 5791
5728 5734 5740 5746 5749 5750 5755 5759 5763 5765 5753 5761 5771 5780 5782 5780 5781 5781 5780 5780 5780 5781 5780 5780 5781 5783 5781 5781 5782 5782 5782 5782 5781 5780 5780 5784 5779 5784 5787 5788 5787 5785 5785 5784 5783
5716 5722 5729 5733 5737 5740 5743 5748 5752 5747 5748 5752 5764 5772 5774 5773 5774 5774 5774 5774 5773 5774 5776 5773 5776 5777 5777 5777 5777 5778 5777 5775 5774 5773 5774 5776 5771 5776 5780 5778 5780 5779 5778 5778 5774
5703 5708 5716 5721 5723 5727 5731 5736 5736 5735 5742 5746 5753 5763 5765 5766 5767 5765 5765 5767 5767 5767 5768 5769 5772 5772 5773 5772 5771 5770 5772 5770 5765 5765 5766 5767 5763 5771 5770 5773 5772 5770 5768 5766 5763
5687 5693 5702 5707 5710 5713 5718 5719 5723 5728 5729 5738 5747 5750 5755 5756 5756 5756 5756 5758 5760 5760 5762 5761 5765 5764 5765 5764 5765 5765 5766 5767 5761 5760 5756 5758 5761 5756 5763 5767 5764 5761 5758 5755 5752
5670 5679 5687 5693 5695 5697 5701 5706 5710 5714 5718 5729 5734 5738 5742 5746 5745 5747 5747 5749 5752 5753 5752 5751 5751 5758 5758 5755 5755 5756 5757 5758 5758 5752 5747 5747 5746 5747 5755 5756 5754 5752 5749 5746 5742
5654 5658 5674 5679 5675 5679 5685 5690 5698 5704 5711 5717 5722 5725 5728 5732 5736 5736 5735 5737 5741 5745 5745 5741 5741 5747 5748 5748 5749 5748 5748 5749 5749 5745 5742 5737 5733 5739 5746 5745 5740 5741 5737 5733 5729
5644 5641 5652 5663 5658 5666 5673 5681 5689 5693 5699 5702 5706 5712 5714 5721 5724 5726 5725 5726 5728 5733 5734 5733 5730 5729 5735 5736 5737 5738 5738 5738 5737 5738 5733 5731 5719 5730 5733 5733 5731 5728 5721 5719 5717
5623 5628 5634 5639 5644 5651 5660 5665 5674 5679 5685 5689 5694 5699 5706 5707 5706 5709 5718 5717 5717 5719 5722 5725 5721 5717 5718 5725 5729 5729 5729 5728 5727 5723 5718 5720 5716 5719 5719 5722 5719 5714 5711 5709 5703
5608 5612 5617 5619 5631 5640 5645 5650 5655 5663 5669 5673 5682 5686 5688 5691 5697 5697 5701 5706 5708 5710 5712 5710 5710 5710 5710 5712 5714 5716 5718 5716 5712 5708 5711 5704 5709 5711 5714 5711 5705 5701 5697 5694 5692
5590 5593 5599 5604 5615 5628 5633 5639 5644 5647 5654 5658 5666 5673 5678 5681 5688 5688 5689 5692 5696 5697 5696 5697 5695 5699 5701 5700 5699 5700 5703 5699 5698 5700 5696 5703 5698 5702 5703 5698 5691 5690 5687 5682 5681
5571 5580 5587 5592 5603 5608 5615 5628 5633 5637 5640 5646 5654 5662 5665 5668 5674 5677 5678 5677 5680 5683 5683 5684 5684 5684 5684 5687 5687 5686 5688 5681 5682 5684 5682 5686 5681 5692 5686 5678 5678 5675 5672 5669 5667
5554 5564 5570 5578 5585 5591 5602 5620 5622 5625 5628 5635 5640 5645 5648 5659 5661 5660 5661 5662 5664 5667 5669 5671 5671 5670 5671 5673 5671 5669 5674 5670 5672 5672 5673 5666 5671 5671 5665 5663 5662 5658 5656 5656 5651